Weather reports worldwide

Advertisment
Paphos, Cyprus (17600): temperature & dewpoint: 18.10.2020 20:00:00 - 24.10.2020 20:00:00 (EEST)Paphos, Cyprus (17600): wind speed: 18.10.2020 20:00:00 - 24.10.2020 20:00:00 (EEST)Paphos, Cyprus (17600): wind direction: 18.10.2020 20:00:00 - 24.10.2020 20:00:00 (EEST)Paphos, Cyprus (17600): reduced air pressure: 18.10.2020 20:00:00 - 24.10.2020 20:00:00 (EEST)Paphos, Cyprus (17600): visibility: 18.10.2020 20:00:00 - 24.10.2020 20:00:00 (EEST)
Date & Time tt [°C] td [°C] ff [km/h] ff [kn] dd ppp [hPa] vv [km]
24.10.2020 20:00:00 23,0 11,0 5 3 NE - 10
24.10.2020 19:00:00 27,0 16,0 5 3 E - 10
24.10.2020 18:00:00 27,2 16,2 9 5 ESE 1010,7 15
24.10.2020 17:00:00 29,0 15,0 4 2 - - 10
24.10.2020 16:00:00 29,0 17,0 9 5 WNW - 10
24.10.2020 15:00:00 30,2 18,0 8 4 W 1011,5 15
24.10.2020 14:00:00 30,0 18,0 11 6 W - 10
24.10.2020 13:00:00 29,0 18,0 8 4 WSW - 10
24.10.2020 12:00:00 28,9 14,3 9 5 SW 1012,1 10
24.10.2020 11:00:00 30,0 11,0 0 0 N - 10
24.10.2020 10:00:00 29,0 12,0 8 4 ENE - 10
24.10.2020 09:00:00 25,5 11,3 9 5 ENE 1013,5 10
24.10.2020 08:00:00 22,0 11,0 8 4 NNE - 10
24.10.2020 07:00:00 21,0 10,0 11 6 NE - 10
24.10.2020 06:00:00 20,3 10,1 8 4 NNE 1013,1 10
24.10.2020 05:00:00 21,0 12,0 9 5 NNE - 10
24.10.2020 04:00:00 21,0 13,0 15 8 NE - 10
24.10.2020 03:00:00 21,2 13,6 18 10 NE 1013,6 10
24.10.2020 02:00:00 21,0 14,0 11 6 NE - 10
24.10.2020 01:00:00 20,0 14,0 9 5 NE - 10
24.10.2020 00:00:00 20,3 14,0 8 4 NNE 1014,9 20
23.10.2020 23:00:00 21,0 14,0 13 7 NE - 10
23.10.2020 22:00:00 20,0 15,0 9 5 NNE - 10
23.10.2020 21:00:00 21,0 14,9 9 5 NNE 1015,5 10
23.10.2020 20:00:00 21,0 15,0 8 4 NNE - 10
23.10.2020 19:00:00 23,0 16,0 2 1 - - 10
23.10.2020 18:00:00 26,0 16,8 4 2 SSW 1015,3 10
23.10.2020 17:00:00 27,0 17,0 8 4 SSW - 10
23.10.2020 16:00:00 29,0 15,0 11 6 S - 10
23.10.2020 15:00:00 29,4 14,0 11 6 S 1015,4 10
23.10.2020 14:00:00 30,0 14,0 11 6 S - 10
23.10.2020 13:00:00 30,0 18,0 15 8 SE - 10
23.10.2020 12:00:00 30,1 16,9 16 9 SE 1016,9 10
23.10.2020 11:00:00 30,0 14,0 15 8 SE - 10
23.10.2020 10:00:00 29,0 11,0 9 5 ENE - 10
23.10.2020 09:00:00 25,6 14,4 15 8 NNE 1016,7 10
23.10.2020 08:00:00 22,0 16,0 18 10 NE - 10
23.10.2020 07:00:00 21,0 15,0 21 11 N - 10
23.10.2020 06:00:00 20,9 15,0 18 10 N 1015,9 10
23.10.2020 05:00:00 20,0 13,0 13 7 N - 10
23.10.2020 04:00:00 20,0 14,0 11 6 NNE - 10
23.10.2020 03:00:00 20,0 13,5 15 8 NNE 1016,6 10
23.10.2020 02:00:00 20,0 14,0 11 6 NNE - 10
23.10.2020 01:00:00 20,0 15,0 13 7 N - 10
23.10.2020 00:00:00 21,2 15,5 4 2 - 1017,4 10
22.10.2020 23:00:00 22,0 16,0 16 9 NNE - 10
22.10.2020 22:00:00 23,0 16,0 9 5 WNW - 10
22.10.2020 21:00:00 21,7 15,1 13 7 NNW 1017,8 20
22.10.2020 20:00:00 23,0 16,0 9 5 NNW - 10
22.10.2020 19:00:00 23,0 16,0 8 4 NNW - 10
22.10.2020 18:00:00 24,8 16,5 16 9 WNW 1017,7 10
22.10.2020 17:00:00 26,0 17,0 16 9 NW - 10
22.10.2020 16:00:00 27,0 15,0 22 12 WNW - 10
22.10.2020 15:00:00 27,2 16,2 24 13 WNW 1018,1 10
22.10.2020 14:00:00 28,0 17,0 26 14 W - 10
22.10.2020 13:00:00 29,0 17,0 18 10 WNW - 10
22.10.2020 12:00:00 28,1 17,3 24 13 W 1019,5 10
22.10.2020 11:00:00 30,0 12,0 16 9 NNW - 10
22.10.2020 10:00:00 26,0 15,0 5 3 NNW - 10
22.10.2020 09:00:00 24,3 12,3 9 5 N 1019,8 20
22.10.2020 08:00:00 20,0 12,0 13 7 NNE - 10
22.10.2020 07:00:00 18,0 11,0 15 8 N - 10
22.10.2020 06:00:00 18,0 11,6 15 8 N 1019,0 10
22.10.2020 05:00:00 19,0 12,0 13 7 N - 10
22.10.2020 04:00:00 18,0 12,0 9 5 NNE - 10
22.10.2020 03:00:00 18,7 11,8 13 7 N 1018,8 20
22.10.2020 02:00:00 20,0 12,0 11 6 NNE - 10
22.10.2020 01:00:00 20,0 12,0 11 6 NNE - 10
22.10.2020 00:00:00 19,9 12,4 15 8 N 1019,0 10
21.10.2020 23:00:00 20,0 13,0 11 6 N - 10
21.10.2020 22:00:00 20,0 13,0 13 7 N - 10
21.10.2020 21:00:00 20,8 13,7 9 5 N 1018,5 20
21.10.2020 20:00:00 21,0 13,0 9 5 NNW - 10
21.10.2020 19:00:00 23,0 14,0 8 4 NNW - 10
21.10.2020 18:00:00 25,0 13,2 13 7 NW 1017,4 20
21.10.2020 17:00:00 26,0 13,0 13 7 WNW - 10
21.10.2020 16:00:00 27,0 10,0 8 4 W - 10
21.10.2020 15:00:00 28,7 10,4 8 4 WNW 1017,7 20
21.10.2020 14:00:00 27,0 13,0 18 10 WNW - 10
21.10.2020 13:00:00 27,0 14,0 22 12 NW - 10
21.10.2020 12:00:00 27,0 15,0 26 14 NW - 10
21.10.2020 11:00:00 26,0 15,0 34 18 WNW - 10
21.10.2020 10:00:00 25,0 16,0 34 18 NW - 10
21.10.2020 09:00:00 23,2 16,7 34 18 WNW 1019,0 10
21.10.2020 08:00:00 23,0 12,0 9 5 N - 10
21.10.2020 07:00:00 21,0 11,0 9 5 N - 10
21.10.2020 06:00:00 20,1 10,5 13 7 N 1016,4 10
21.10.2020 05:00:00 20,0 11,0 13 7 N - 10
21.10.2020 04:00:00 20,0 12,0 11 6 NNE - 10
21.10.2020 03:00:00 20,0 12,7 9 5 NNE 1016,1 10
21.10.2020 02:00:00 20,0 13,0 11 6 N - 10
21.10.2020 01:00:00 22,0 15,0 16 9 NNE - 10
21.10.2020 00:00:00 22,3 15,4 13 7 NNE 1016,6 10
20.10.2020 23:00:00 22,0 15,0 9 5 WNW - 10
20.10.2020 22:00:00 23,0 17,0 16 9 NNW - 10
20.10.2020 21:00:00 23,8 18,4 21 11 NW 1018,0 20
20.10.2020 20:00:00 24,0 19,0 21 11 NNW - 10
20.10.2020 19:00:00 25,0 19,0 18 10 NW - 10
20.10.2020 18:00:00 26,3 16,8 18 10 WNW 1015,6 20
20.10.2020 17:00:00 27,0 15,0 24 13 WNW - 10
20.10.2020 16:00:00 29,0 13,0 28 15 WNW - 10
20.10.2020 15:00:00 29,0 15,5 29 16 WNW 1015,9 20
20.10.2020 14:00:00 29,0 21,0 22 12 W - 10
20.10.2020 13:00:00 28,0 21,0 24 13 W - 10
20.10.2020 12:00:00 28,1 21,1 22 12 W 1017,0 10
20.10.2020 11:00:00 28,0 21,0 16 9 WNW - 10
20.10.2020 10:00:00 28,0 20,0 16 9 WNW - 10
20.10.2020 09:00:00 25,5 17,9 5 3 N 1017,4 10
20.10.2020 08:00:00 21,0 15,0 13 7 NNE - 10
20.10.2020 07:00:00 18,0 14,0 11 6 NNE - 10
20.10.2020 06:00:00 19,0 13,6 8 4 N 1016,9 10
20.10.2020 05:00:00 19,0 14,0 5 3 NE - 10
20.10.2020 04:00:00 19,0 14,0 5 3 E - 10
20.10.2020 03:00:00 19,9 15,1 4 2 NNW 1016,8 15
20.10.2020 02:00:00 21,0 18,0 9 5 NNW - 10
20.10.2020 01:00:00 20,0 16,0 9 5 N - 10
20.10.2020 00:00:00 21,4 17,2 9 5 N 1017,5 10
19.10.2020 23:00:00 22,0 17,0 9 5 NNW - 10
19.10.2020 22:00:00 20,0 15,0 4 2 - - 10
19.10.2020 21:00:00 21,5 17,1 2 1 NNW 1017,8 10
19.10.2020 20:00:00 25,0 21,0 21 11 WNW - 10
19.10.2020 19:00:00 25,0 20,0 16 9 NW - 10
19.10.2020 18:00:00 26,4 20,9 9 5 WNW 1017,2 10
19.10.2020 17:00:00 27,0 21,0 15 8 WNW - 10
19.10.2020 16:00:00 28,0 21,0 18 10 WNW - 10
19.10.2020 15:00:00 27,9 21,4 24 13 W 1017,2 10
19.10.2020 14:00:00 29,0 22,0 21 11 W - 10
19.10.2020 13:00:00 28,0 21,0 11 6 SW - 10
19.10.2020 12:00:00 29,6 21,0 13 7 SSE 1017,7 10
19.10.2020 11:00:00 29,0 20,0 16 9 SSE - 10
19.10.2020 10:00:00 27,0 17,0 11 6 SSE - 10
19.10.2020 09:00:00 25,8 11,6 8 4 NNE 1017,0 10
19.10.2020 08:00:00 20,0 11,0 9 5 NNE - 10
19.10.2020 07:00:00 17,0 9,0 9 5 NNE - 10
19.10.2020 06:00:00 17,9 9,5 11 6 NNE 1016,0 10
19.10.2020 05:00:00 18,0 9,0 9 5 N - 10
19.10.2020 04:00:00 18,0 9,0 11 6 NNE - 10
19.10.2020 03:00:00 18,1 10,2 9 5 NNE 1016,1 10
19.10.2020 02:00:00 19,0 11,0 11 6 N - 10
19.10.2020 01:00:00 20,0 12,0 9 5 N - 10
19.10.2020 00:00:00 18,9 8,0 9 5 N 1016,0 10
18.10.2020 23:00:00 19,0 9,0 13 7 N - 10
18.10.2020 22:00:00 19,0 11,0 5 3 NNW - 10
18.10.2020 21:00:00 19,7 14,3 5 3 N 1015,8 15
18.10.2020 20:00:00 23,0 18,0 8 4 NNW - 10

tt = temperature
td = dewpoint
ff = wind speed
dd = wind direction
ppp = reduced air pressure
vv = visibility

Next stations